Flight Track Log - Related Links

Times and Time Zones

All times are in EDT time to prevent confusion due to time zone crossing. See the N711LV flight status page for this flight to view local times or setup timezone preferences in your user account.

Time Position Orientation Groundspeed Altitude Reporting Facility
EDT Latitude Longitude Course Direction KTS MPH feet Rate Location/Type
Thu 05:48:24 PM 39.1667 -94.5667 21° North 176 203 3,200  Level Kansas City TRACON
Thu 05:49:14 PM 39.1922 -94.5369 42° Northeast 190 219 5,300 2,196 Climbing Kansas City Center
Thu 05:50:16 PM 39.1811 -94.4514 99° East 255 293 7,300 1,887 Climbing Kansas City Center
Thu 05:51:18 PM 39.1742 -94.3394 95° East 282 325 9,200 1,694 Climbing Kansas City Center
Thu 05:52:20 PM 39.1686 -94.2403 94° East 292 336 10,800 1,742 Climbing Kansas City Center
Thu 05:53:22 PM 39.1194 -94.1447 124° Southeast 285 328 12,800 1,694 Climbing Kansas City Center
Thu 05:54:24 PM 39.0931 -94.0531 110° East 291 335 14,300 1,403 Climbing Kansas City Center
Thu 05:55:26 PM 39.0856 -93.9469 95° East 311 358 15,700 1,500 Climbing Kansas City Center
Thu 05:56:28 PM 39.0747 -93.8131 96° East 336 387 17,400 1,306 Climbing Kansas City Center
Thu 05:57:30 PM 39.0661 -93.6922 95° East 353 406 18,400 1,296 Climbing Kansas City Center
Thu 05:58:33 PM 39.0575 -93.5486 94° East 361 415 20,100 1,488 Climbing Kansas City Center
Thu 05:59:35 PM 39.0489 -93.4242 95° East 365 420 21,500 1,403 Climbing Kansas City Center
Thu 06:00:37 PM 39.0411 -93.2897 94° East 369 425 23,000 1,258 Climbing Kansas City Center
Thu 06:01:39 PM 39.0306 -93.1561 96° East 375 432 24,100 1,403 Climbing Kansas City Center
Thu 06:02:41 PM 39.0150 -92.9903 97° East 384 442 25,900 1,645 Climbing Kansas City Center
Thu 06:03:43 PM 38.9936 -92.8522 101° East 387 445 27,500 1,548 Climbing Kansas City Center
Thu 06:04:45 PM 38.9758 -92.7161 99° East 385 443 29,100 1,500 Climbing Kansas City Center
Thu 06:05:47 PM 38.9561 -92.5800 101° East 385 443 30,600 1,452 Climbing Kansas City Center
Thu 06:06:49 PM 38.9375 -92.4425 100° East 387 445 32,100 1,403 Climbing Kansas City Center
Thu 06:07:51 PM 38.9178 -92.3053 100° East 388 447 33,500 1,403 Climbing Kansas City Center
Thu 06:08:53 PM 38.8978 -92.1697 101° East 385 443 35,000 1,355 Climbing Kansas City Center
Thu 06:09:55 PM 38.8753 -92.0097 100° East 380 437 36,300 968 Climbing Kansas City Center
Thu 06:10:57 PM 38.8539 -91.8728 101° East 385 443 37,000 339 Climbing Kansas City Center
Thu 06:11:59 PM 38.8322 -91.7278 101° East 403 464 37,000  Level Kansas City Center
Thu 06:13:01 PM 38.8072 -91.5639 101° East 428 493 37,000  Level Kansas City Center
Thu 06:14:03 PM 38.7828 -91.4050 101° East 447 514 37,000  Level Kansas City Center
Thu 06:15:05 PM 38.7583 -91.2433 101° East 459 528 37,000  Level Kansas City Center
Thu 06:16:07 PM 38.7333 -91.0811 101° East 464 534 37,000  Level Kansas City Center
Thu 06:17:09 PM 38.7075 -90.9183 101° East 468 539 37,000  Level Kansas City Center
Thu 06:18:11 PM 38.6822 -90.7575 101° East 466 536 37,000  Level Kansas City Center
Thu 06:19:13 PM 38.6511 -90.5636 102° East 467 537 37,000  Level Kansas City Center
Thu 06:20:15 PM 38.6264 -90.4006 101° East 467 537 37,000  Level Kansas City Center
Thu 06:21:17 PM 38.6003 -90.2439 102° East 485 558 37,000  Level Kansas City Center
Thu 06:22:19 PM 38.5692 -90.0514 102° East 475 547 37,000  Level Kansas City Center
Thu 06:23:21 PM 38.5422 -89.8894 102° East 477 549 37,000  Level Kansas City Center
Thu 06:24:23 PM 38.5144 -89.7269 102° East 473 544 37,000  Level Kansas City Center
Thu 06:25:26 PM 38.4850 -89.5436 102° East 472 543 37,000  Level Kansas City Center
Thu 06:26:28 PM 38.4569 -89.3814 102° East 470 541 37,000 -484 Level Kansas City Center
Thu 06:27:30 PM 38.4292 -89.2194 102° East 470 541 36,000 -968 Descending Kansas City Center
Thu 06:28:32 PM 38.4122 -89.0444 97° East 460 529 35,000 -581 Descending Kansas City Center
Thu 06:29:34 PM 38.4092 -88.8892 91° East 441 507 34,800 -774 Descending Kansas City Center
Thu 06:30:36 PM 38.3997 -88.7231 94° East 438 504 33,400 -1,306 Descending Kansas City Center
Thu 06:31:38 PM 38.3919 -88.5686 94° East 446 513 32,100 -1,306 Descending Kansas City Center
Thu 06:32:40 PM 38.3856 -88.4092 93° East 450 518 30,700 -1,306 Descending Kansas City Center
Thu 06:33:42 PM 38.3778 -88.2503 94° East 449 517 29,400 -1,306 Descending Kansas City Center
Thu 06:34:44 PM 38.3700 -88.0931 94° East 446 513 28,000 -1,500 Descending Kansas City Center
Thu 06:35:46 PM 38.3633 -87.9417 93° East 432 497 26,300 -1,657 Descending Kansas City Center
Thu 06:36:58 PM 38.3550 -87.7636 93° East 421 484 24,300 -1,746 Descending Indianapolis Center
Thu 06:38:00 PM 38.3456 -87.5889 94° East 412 474 22,400 -1,694 Descending Indianapolis Center
Thu 06:39:02 PM 38.3375 -87.4475 94° East 401 461 20,800 -1,548 Descending Indianapolis Center
Thu 06:40:04 PM 38.3300 -87.3081 94° East 396 456 19,200 -1,488 Descending Indianapolis Center
Thu 06:41:07 PM 38.3153 -87.1753 98° East 383 441 17,700 -1,536 Descending Indianapolis Center
Thu 06:42:09 PM 38.2964 -87.0283 99° East 373 429 16,000 -1,500 Descending Indianapolis Center
Thu 06:43:11 PM 38.2814 -86.9125 99° East 353 406 14,600 -1,258 Descending Indianapolis Center
Thu 06:44:13 PM 38.2669 -86.7967 99° East 336 387 13,400 -1,210 Descending Indianapolis Center
Thu 06:45:15 PM 38.2517 -86.6847 100° East 324 373 12,100 -1,258 Descending Indianapolis Center
Thu 06:46:17 PM 38.2542 -86.5731 88° East 327 376 10,800 -1,306 Descending Indianapolis Center
Thu 06:47:19 PM 38.2806 -86.4675 72° East 316 364 9,400 -1,548 Descending Indianapolis Center
Thu 06:48:21 PM 38.3106 -86.3456 73° East 303 349 7,600 -1,597 Descending Indianapolis Center
Thu 06:49:23 PM 38.3261 -86.2536 78° East 269 310 6,100 -1,452 Descending Indianapolis Center
Thu 06:50:25 PM 38.3361 -86.1636 82° East 257 296 4,600 -968 Descending Indianapolis Center
Thu 06:51:27 PM 38.3314 -86.0733 94° East 254 292 4,100 -242 Descending Indianapolis Center
Thu 06:52:29 PM 38.3158 -85.9842 103° East 255 293 4,100 -145 Level Indianapolis Center
Thu 06:53:31 PM 38.3025 -85.8953 101° East 256 295 3,800 -629 Descending Indianapolis Center
Thu 06:54:33 PM 38.2875 -85.8178 104° East 241 277 2,800 -677 Descending Indianapolis Center
Thu 06:55:35 PM 38.2525 -85.7500 123° Southeast 225 259 2,400 -387 Descending Indianapolis Center
Thu 06:57:00 PM 38.1741 -85.7365 137° Southeast  Level Estimated
Thu 07:04:00 PM 38.1741 -85.7365 293° West  Level Estimated
Thu 07:05:00 PM 38.1741 -85.7365 293° West  Level Estimated

Login

Don't have an account? Register now (free) for customized features, flight alerts, and more!